サイディング・スプリング彗星

162P/Siding Spring (2010)

English version
Home page
Updated on May 5, 2012

---------------------------------------------------------------------

・ プロフィール

・ 写真集

・ 軌道要素

Epoch 2010 Mar. 25.0 TT = JDT 2455280.5
T 2010 Mar. 8.42272 TT                                  MPC
q   1.2330701            (2000.0)            P               Q
n   0.18479702     Peri.  356.30645     +0.88277489     -0.40266313
a   3.0526199      Node    31.24007     +0.44210399     +0.53777749
e   0.5960617      Incl.   27.81679     +0.15891054     +0.74071437
P   5.33
From 1411 observations 1990 Mar. 23-2012 Apr. 21, mean residual 0".4.

・ 星図

・ 光度変化

        H = 13.7  G = 0.15

---------------------------------------------------------------------

軌道要素はM.P.E.C. 2012-J16に掲載されたものです。
星図は StellaNavigator Ver.2.0 for Windows (アストロアーツ編著 / アスキー出版局刊) で作成したものです。
光度グラフはComet for Windowsで作成したものです。

---------------------------------------------------------------------

Copyright(C) Seiichi Yoshida (comet@aerith.net). All rights reserved.